utc_time,unix_time,temp,cond,salinity,tds,chla_rfu,chla_ugl,bga_rfu,bga_ugl,odo,sat,nitrate_um,nitrogen_mg,stage,area,discharge,total_discharge
2021-11-01 00:00:01+00:00,1635724801,16.62,,,,,,,,,,122.26,1.71243333333333,,1.5568,0.0248,0.0496
2021-11-01 00:20:01+00:00,1635726001,16.65,,,,,,,,,,122.506666666667,1.71586666666667,,1.5584,-0.0014,-0.0028
2021-11-01 00:40:02+00:00,1635727202,16.71,,,,,,,,,,121.316666666667,1.69926666666667,,1.56,0.0234,0.0468
2021-11-01 01:00:02+00:00,1635728402,16.76,,,,,,,,,,127.89,1.79136666666667,,1.56,0.0248,0.0496
2021-11-01 01:20:01+00:00,1635729601,16.8,,,,,,,,,,108.84,1.52446666666667,,1.5616,0.0454,0.0908
2021-11-01 01:40:02+00:00,1635730802,16.81,,,,,,,,,,110.45,1.54703333333333,,1.5632,0.0498,0.0996
2021-11-01 02:00:02+00:00,1635732002,16.83,,,,,,,,,,100.703333333333,1.4105,,1.5664,0.0308,0.0616
2021-11-01 02:20:01+00:00,1635733201,16.83,,,,,,,,,,103.15,1.4448,,1.5664,0.0146,0.0292
2021-11-01 02:40:01+00:00,1635734401,16.83,,,,,,,,,,105.846666666667,1.4825,,1.5695,0.053,0.106
2021-11-01 03:00:01+00:00,1635735601,16.81,,,,,,,,,,95.4066666666667,1.33633333333333,,1.5712,0.0383,0.0766
2021-11-01 03:20:01+00:00,1635736801,16.77,,,,,,,,,,97.6266666666667,1.36743333333333,,1.5728,0.0664,0.1328
2021-11-01 03:40:01+00:00,1635738001,16.72,,,,,,,,,,95.71,1.3406,,1.5744,0.0369,0.0738
2021-11-01 04:00:01+00:00,1635739201,16.68,,,,,,,,,,101.31,1.41903333333333,,1.5744,0.0339,0.0678
2021-11-01 04:20:01+00:00,1635740401,16.63,,,,,,,,,,99.36,1.3917,,1.5744,0.0251,0.0502
2021-11-01 04:40:02+00:00,1635741602,16.6,,,,,,,,,,91.1433333333333,1.27663333333333,,1.576,0.0073,0.0146
2021-11-01 05:00:01+00:00,1635742801,16.57,,,,,,,,,,91.87,1.28683333333333,,1.576,0.0399,0.0798
2021-11-01 05:40:02+00:00,1635745202,16.52,,,,,,,,,,94.66,1.32593333333333,,1.576,0.0236,0.0472
2021-11-01 06:00:02+00:00,1635746402,16.49,,,,,,,,,,101.556666666667,1.42246666666667,,1.576,0.0562,0.1124
2021-11-01 06:20:01+00:00,1635747601,16.47,,,,,,,,,,99.6233333333333,1.39536666666667,,1.576,0,0
2021-11-01 06:40:01+00:00,1635748801,16.42,,,,,,,,,,103.733333333333,1.45293333333333,,1.576,-0.0147,-0.0294
2021-11-01 07:00:02+00:00,1635750002,16.42,,,,,,,,,,106.32,1.4892,,1.576,-0.0221,-0.0442
2021-11-01 07:20:01+00:00,1635751201,16.44,,,,,,,,,,102.68,1.43816666666667,,1.5776,-0.0088,-0.0176
2021-11-01 07:40:01+00:00,1635752401,16.41,,,,,,,,,,95.75,1.3412,,1.576,0.0073,0.0146
2021-11-01 08:00:02+00:00,1635753602,16.39,,,,,,,,,,89.35,1.2515,,1.5776,-0.0192,-0.0384
2021-11-01 08:20:01+00:00,1635754801,16.53,,,,,,,,,,92.9933333333333,1.3026,,1.56,-0.2254,-0.4508
2021-11-01 08:40:02+00:00,1635756002,16.8,,,,,,,,,,82.9966666666667,1.1625,,1.5551,-0.3326,-0.6652
2021-11-01 09:00:02+00:00,1635757202,17.01,,,,,,,,,,95.7466666666667,1.3411,,1.5232,-0.4611,-0.9222
2021-11-01 09:20:01+00:00,1635758401,17.38,,,,,,,,,,90.5566666666667,1.2684,,1.5168,-0.4306,-0.8612
2021-11-01 09:40:02+00:00,1635759602,17.59,,,,,,,,,,94.5166666666667,1.32386666666667,,1.5152,-0.335,-0.67
2021-11-01 10:00:02+00:00,1635760802,17.62,,,,,,,,,,97.71,1.3686,,1.5216,-0.2082,-0.4164
2021-11-01 10:20:02+00:00,1635762002,17.57,,,,,,,,,,113.693333333333,1.59253333333333,,1.5408,-0.0173,-0.0346
2021-11-01 10:40:01+00:00,1635763201,17.51,,,,,,,,,,112.083333333333,1.56996666666667,,1.544,-0.0405,-0.081
2021-11-01 11:00:01+00:00,1635764401,17.47,,,,,,,,,,116.79,1.63583333333333,,1.5456,0.0289,0.0578
2021-11-01 11:20:01+00:00,1635765601,17.41,,,,,,,,,,112.173333333333,1.57116666666667,,1.5456,0.0405,0.081
2021-11-01 11:40:02+00:00,1635766802,17.39,,,,,,,,,,104.67,1.46606666666667,,1.5472,0.0246,0.0492
2021-11-01 12:00:01+00:00,1635768001,17.37,,,,,,,,,,95.7366666666667,1.3409,,1.5488,0.0043,0.0086
2021-11-01 12:20:02+00:00,1635769202,17.18,,,,,,,,,,84.4433333333333,1.1828,,1.552,0.0436,0.0872
2021-11-01 12:40:02+00:00,1635770402,17.13,,,,,,,,,,66.0833333333333,0.925566666666667,,1.552,0.0334,0.0668
2021-11-01 13:00:02+00:00,1635771602,17.01,,,,,,,,,,66.5366666666667,0.931933333333333,,1.552,0.0553,0.1106
2021-11-01 13:20:01+00:00,1635772801,16.88,,,,,,,,,,68.66,0.9617,,1.552,0.0276,0.0552
2021-11-01 13:40:01+00:00,1635774001,16.76,,,,,,,,,,66.12,0.9261,,1.552,0.0363,0.0726
2021-11-01 14:00:02+00:00,1635775202,16.67,,,,,,,,,,53.4966666666667,0.749266666666667,,1.5536,0.0655,0.131
2021-11-01 14:20:02+00:00,1635776402,16.59,,,,,,,,,,48.1266666666667,0.674066666666666,,1.5568,0.035,0.07
2021-11-01 14:40:02+00:00,1635777602,16.54,,,,,,,,,,64.4433333333333,0.902633333333333,,1.5568,0.0657,0.1314
2021-11-01 15:00:01+00:00,1635778801,16.49,,,,,,,,,,50.2366666666667,0.703633333333333,,1.5584,0.0511,0.1022
2021-11-01 15:20:01+00:00,1635780001,16.45,,,,,,,,,,48.2033333333333,0.675133333333333,,1.56,0.0878,0.1756
2021-11-01 15:40:02+00:00,1635781202,16.36,,,,,,,,,,48.4666666666667,0.6789,,1.5664,0.0602,0.1204
2021-11-01 16:00:01+00:00,1635782401,16.24,,,,,,,,,,48.78,0.683266666666666,,1.5712,0.1046,0.2092
2021-11-01 16:20:01+00:00,1635783601,16.06,,,,,,,,,,48.93,0.6853,,1.5712,0.112,0.224
2021-11-01 16:40:01+00:00,1635784801,15.92,,,,,,,,,,47.2266666666667,0.661433333333333,,1.5728,0.025,0.05
2021-11-01 17:00:02+00:00,1635786002,15.73,,,,,,,,,,39.4466666666667,0.552533333333333,,1.5744,0.0975,0.195
2021-11-01 17:20:02+00:00,1635787202,15.58,,,,,,,,,,49.1533333333333,0.688466666666667,,1.5712,0.0781,0.1562
2021-11-01 17:40:02+00:00,1635788402,15.46,,,,,,,,,,55.9733333333333,0.784033333333333,,1.5728,0.0501,0.1002
2021-11-01 18:00:01+00:00,1635789601,15.37,,,,,,,,,,43.8333333333333,0.614,,1.5744,0.0561,0.1122
2021-11-01 18:20:01+00:00,1635790801,15.34,,,,,,,,,,40.72,0.570366666666667,,1.576,0.0621,0.1242
2021-11-01 18:40:01+00:00,1635792001,15.35,,,,,,,,,,45.5533333333333,0.638066666666667,,1.576,0.1065,0.213
2021-11-01 19:00:02+00:00,1635793202,15.35,,,,,,,,,,54.8466666666667,0.768266666666667,,1.5744,0.0561,0.1122
2021-11-01 19:20:01+00:00,1635794401,15.39,,,,,,,,,,46.8866666666667,0.6567,,1.576,0.0192,0.0384
2021-11-01 19:40:01+00:00,1635795601,15.39,,,,,,,,,,94.43,1.32263333333333,,1.5776,0.0577,0.1154
2021-11-01 20:00:01+00:00,1635796801,15.39,,,,,,,,,,52.9433333333333,0.7416,,1.576,0.0636,0.1272
2021-11-01 20:20:01+00:00,1635798001,15.4,,,,,,,,,,92.7533333333333,1.2991,,1.576,0.0281,0.0562
2021-11-01 20:40:02+00:00,1635799202,15.42,,,,,,,,,,36.6266666666667,0.513,,1.5776,0.0325,0.065
2021-11-01 21:00:01+00:00,1635800401,15.43,,,,,,,,,,51.1733333333333,0.716833333333333,,1.5632,0.0586,0.1172
2021-11-01 21:20:01+00:00,1635801601,15.47,,,,,,,,,,64.0566666666667,0.897233333333333,,1.5695,0.0191,0.0382
2021-11-01 21:40:01+00:00,1635802801,15.51,,,,,,,,,,84.8666666666667,1.18866666666667,,1.5695,-0.0044,-0.0088
2021-11-01 22:00:01+00:00,1635804001,15.58,,,,,,,,,,80.9066666666667,1.13323333333333,,1.5712,-0.0353,-0.0706
2021-11-01 22:20:02+00:00,1635805202,15.54,,,,,,,,,,83.1133333333333,1.1642,,1.5728,0.0324,0.0648
2021-11-01 22:40:02+00:00,1635806402,15.56,,,,,,,,,,81.7366666666667,1.1449,,1.5728,0.0236,0.0472
2021-11-01 23:00:02+00:00,1635807602,15.65,,,,,,,,,,71.5066666666667,1.00156666666667,,1.5728,-0.0073,-0.0146
2021-11-01 23:20:02+00:00,1635808802,15.65,,,,,,,,,,67.5566666666667,0.946266666666667,,1.5712,-0.0162,-0.0324
2021-11-01 23:40:01+00:00,1635810001,15.59,,,,,,,,,,62.7466666666667,0.878866666666667,,1.5728,0.0073,0.0146
2021-11-02 00:00:02+00:00,1635811202,15.59,,,,,,,,,,65.76,0.921066666666667,,1.5728,0.0059,0.0118
2021-11-02 00:20:01+00:00,1635812401,15.61,,,,,,,,,,65.41,0.9162,,1.5728,-0.0118,-0.0236
2021-11-02 00:40:01+00:00,1635813601,15.59,,,,,,,,,,63.7633333333333,0.893133333333333,,1.5744,-0.0059,-0.0118
2021-11-02 01:00:01+00:00,1635814801,15.6,,,,,,,,,,64.4266666666667,0.902366666666667,,1.5744,0.0428,0.0856
2021-11-02 01:40:02+00:00,1635817202,15.64,,,,,,,,,,62.9833333333333,0.8822,,1.576,0.0606,0.1212
2021-11-02 02:00:02+00:00,1635818402,15.65,,,,,,,,,,62.8333333333333,0.880066666666667,,1.5744,0.0325,0.065
2021-11-02 02:20:01+00:00,1635819601,15.67,,,,,,,,,,55.1733333333333,0.772833333333333,,1.576,0.0355,0.071
2021-11-02 02:40:01+00:00,1635820801,15.65,,,,,,,,,,59.6066666666667,0.8349,,1.5776,0.0355,0.071
2021-11-02 03:00:02+00:00,1635822002,15.67,,,,,,,,,,51.7033333333333,0.7242,,1.5792,0.0237,0.0474
2021-11-02 03:20:02+00:00,1635823202,15.68,,,,,,,,,,51.16,0.716566666666667,,1.5839,0.0416,0.0832
2021-11-02 03:40:01+00:00,1635824401,15.72,,,,,,,,,,50.9633333333333,0.713833333333333,,1.5856,0.0387,0.0774
2021-11-02 04:00:02+00:00,1635825602,15.72,,,,,,,,,,50.7966666666667,0.711466666666666,,1.5872,0.0521,0.1042
2021-11-02 04:20:01+00:00,1635826801,15.73,,,,,,,,,,51.4966666666667,0.721266666666667,,1.5904,0.0253,0.0506
2021-11-02 04:40:01+00:00,1635828001,15.74,,,,,,,,,,41.6166666666667,0.582866666666667,,1.5904,0.0597,0.1194
2021-11-02 05:00:01+00:00,1635829201,15.73,,,,,,,,,,41.51,0.581466666666667,,1.5904,0.0761,0.1522
2021-11-02 05:20:01+00:00,1635830401,15.7,,,,,,,,,,47.1566666666667,0.660466666666667,,1.5904,0.0119,0.0238
2021-11-02 05:40:02+00:00,1635831602,15.69,,,,,,,,,,47.1633333333333,0.660566666666667,,1.592,0.0373,0.0746
2021-11-02 06:00:01+00:00,1635832801,15.68,,,,,,,,,,48.2033333333333,0.675166666666667,,1.592,0.0179,0.0358
2021-11-02 06:40:01+00:00,1635835201,15.63,,,,,,,,,,52.3933333333333,0.733866666666667,,1.592,0.0358,0.0716
2021-11-02 07:00:01+00:00,1635836401,15.58,,,,,,,,,,42.6566666666667,0.5975,,1.5936,0.0329,0.0658
2021-11-02 07:20:02+00:00,1635837602,15.56,,,,,,,,,,47.8133333333333,0.669733333333333,,1.5936,0.0658,0.1316
2021-11-02 07:40:01+00:00,1635838801,15.56,,,,,,,,,,49.8966666666667,0.698866666666667,,1.5936,0,0
2021-11-02 08:00:01+00:00,1635840001,15.55,,,,,,,,,,41.24,0.577633333333333,,1.5936,0.0179,0.0358
2021-11-02 08:20:02+00:00,1635841202,15.52,,,,,,,,,,43.6,0.610666666666666,,1.5936,0.0254,0.0508
2021-11-02 08:40:01+00:00,1635842401,15.53,,,,,,,,,,67.3733333333333,0.943633333333333,,1.5936,-0.0149,-0.0298
2021-11-02 09:00:02+00:00,1635843602,15.53,,,,,,,,,,68.0933333333333,0.953733333333333,,1.592,-0.1121,-0.2242
2021-11-02 09:20:02+00:00,1635844802,15.92,,,,,,,,,,63.8966666666667,0.894933333333333,,1.5728,-0.3749,-0.7498
2021-11-02 09:40:01+00:00,1635846001,16.14,,,,,,,,,,60.52,0.8477,,1.5551,-0.4493,-0.8986
2021-11-02 10:00:02+00:00,1635847202,16.31,,,,,,,,,,61.7866666666667,0.865433333333333,,1.5536,-0.3847,-0.7694
2021-11-02 10:20:01+00:00,1635848401,16.47,,,,,,,,,,64.1633333333333,0.898733333333333,,1.5488,-0.3224,-0.6448
2021-11-02 10:40:02+00:00,1635849602,16.52,,,,,,,,,,68.1233333333333,0.9542,,1.56,-0.1653,-0.3306
2021-11-02 11:00:01+00:00,1635850801,16.52,,,,,,,,,,77.45,1.08486666666667,,1.5712,0.0058,0.0116
2021-11-02 11:20:02+00:00,1635852002,16.47,,,,,,,,,,74.01,1.03663333333333,,1.5728,0.0147,0.0294
2021-11-02 11:40:02+00:00,1635853202,16.42,,,,,,,,,,71.7633333333333,1.00516666666667,,1.5712,0.0516,0.1032
2021-11-02 12:00:02+00:00,1635854402,16.4,,,,,,,,,,59.1566666666667,0.828633333333333,,1.5728,0.0029,0.0058
2021-11-02 12:20:02+00:00,1635855602,16.4,,,,,,,,,,59.9966666666667,0.840333333333333,,1.5744,0.0059,0.0118
2021-11-02 12:40:01+00:00,1635856801,16.4,,,,,,,,,,56.1233333333333,0.786133333333333,,1.5744,0.0339,0.0678
2021-11-02 13:00:01+00:00,1635858001,16.4,,,,,,,,,,51.5266666666667,0.721733333333333,,1.5728,0.0206,0.0412
2021-11-02 13:20:02+00:00,1635859202,16.4,,,,,,,,,,42.5233333333333,0.595633333333333,,1.5728,0.0324,0.0648
2021-11-02 13:40:01+00:00,1635860401,16.4,,,,,,,,,,39.7,0.556066666666667,,1.5728,0.0354,0.0708
2021-11-02 14:20:01+00:00,1635862801,16.24,,,,,,,,,,38.8333333333333,0.543933333333333,,1.576,0.0162,0.0324
2021-11-02 14:40:01+00:00,1635864001,16.14,,,,,,,,,,28.7666666666667,0.402933333333333,,1.5776,0.1021,0.2042
2021-11-02 15:00:01+00:00,1635865201,16.05,,,,,,,,,,35.5866666666667,0.498466666666667,,1.5808,0.0964,0.1928
2021-11-02 15:20:02+00:00,1635866402,16.01,,,,,,,,,,22.2366666666667,0.311433333333333,,1.5824,0.0609,0.1218
2021-11-02 15:40:02+00:00,1635867602,15.97,,,,,,,,,,27.93,0.3912,,1.5856,0.0565,0.113
2021-11-02 16:00:02+00:00,1635868802,15.91,,,,,,,,,,34.8266666666667,0.487833333333333,,1.5888,0.1133,0.2266
2021-11-02 16:20:01+00:00,1635870001,15.84,,,,,,,,,,44.0466666666667,0.616933333333333,,1.5888,0.1581,0.3162
2021-11-02 16:40:01+00:00,1635871201,15.79,,,,,,,,,,40.7066666666667,0.570133333333333,,1.5904,0.0672,0.1344
2021-11-02 17:00:01+00:00,1635872401,15.74,,,,,,,,,,46.6866666666667,0.6539,,1.592,0.1315,0.263
2021-11-02 17:20:01+00:00,1635873601,15.7,,,,,,,,,,54.3233333333333,0.7609,,1.5904,0.0955,0.191
2021-11-02 17:40:01+00:00,1635874801,15.67,,,,,,,,,,64.86,0.9085,,1.5904,0.0776,0.1552
2021-11-02 18:00:01+00:00,1635876001,15.66,,,,,,,,,,62.37,0.873566666666667,,1.5904,0.0716,0.1432
2021-11-02 18:20:02+00:00,1635877202,15.7,,,,,,,,,,56.0566666666667,0.785233333333333,,1.5904,0.0388,0.0776
2021-11-02 18:40:02+00:00,1635878402,15.74,,,,,,,,,,59.9466666666667,0.8397,,1.5888,0.0417,0.0834
2021-11-02 19:00:01+00:00,1635879601,15.79,,,,,,,,,,60.7733333333333,0.851266666666667,,1.5888,0.0492,0.0984
2021-11-02 19:20:02+00:00,1635880802,15.87,,,,,,,,,,58.53,0.8198,,1.5872,0.0327,0.0654
2021-11-02 19:40:01+00:00,1635882001,16.01,,,,,,,,,,56.5733333333333,0.7924,,1.5856,0.0044,0.0088
2021-11-02 20:00:01+00:00,1635883201,16,,,,,,,,,,56.5633333333333,0.792266666666667,,1.5839,0.0148,0.0296
2021-11-02 20:20:01+00:00,1635884401,16.08,,,,,,,,,,58.9033333333333,0.825066666666667,,1.5839,0.0104,0.0208
2021-11-02 20:40:01+00:00,1635885601,16.11,,,,,,,,,,57.0466666666667,0.799066666666667,,1.5792,-0.0177,-0.0354
2021-11-02 21:00:02+00:00,1635886802,16.14,,,,,,,,,,58.1633333333333,0.8147,,1.5792,-0.0252,-0.0504
2021-11-02 21:20:01+00:00,1635888001,16.24,,,,,,,,,,57.5333333333333,0.8058,,1.5792,-0.0415,-0.083
2021-11-02 21:40:01+00:00,1635889201,16.2,,,,,,,,,,61.0366666666667,0.854866666666667,,1.568,-0.1736,-0.3472
2021-11-02 22:00:01+00:00,1635890401,18.81,,,,,,,,,,34.1266666666667,0.478033333333333,,1.5472,-0.3917,-0.7834
2021-11-02 22:20:01+00:00,1635891601,19.49,,,,,,,,,,31.9233333333333,0.447133333333333,,1.528,-0.4483,-0.8966
2021-11-02 22:40:02+00:00,1635892802,19.84,,,,,,,,,,40.71,0.5702,,1.5168,-0.3524,-0.7048
2021-11-02 23:00:01+00:00,1635894001,20.08,,,,,,,,,,42.5833333333333,0.5965,,1.5168,-0.3027,-0.6054
2021-11-02 23:20:01+00:00,1635895201,20.2,,,,,,,,,,51.5033333333333,0.721433333333333,,1.5344,-0.1078,-0.2156
2021-11-02 23:40:01+00:00,1635896401,20.09,,,,,,,,,,57.4366666666667,0.804533333333333,,1.5456,-0.0072,-0.0144
2021-11-03 00:00:01+00:00,1635897601,20.02,,,,,,,,,,50.02,0.700533333333333,,1.5504,0.0043,0.0086
2021-11-03 00:20:02+00:00,1635898802,19.86,,,,,,,,,,59.6766666666667,0.835933333333333,,1.5536,-0.0204,-0.0408
2021-11-03 00:40:01+00:00,1635900001,19.63,,,,,,,,,,59.07,0.8274,,1.5551,-0.0029,-0.0058
2021-11-03 01:00:01+00:00,1635901201,19.41,,,,,,,,,,59.5533333333333,0.834166666666667,,1.5584,-0.0409,-0.0818
2021-11-03 01:20:02+00:00,1635902402,19.19,,,,,,,,,,63.2966666666667,0.886566666666667,,1.56,-0.0131,-0.0262
2021-11-03 01:40:01+00:00,1635903601,19.05,,,,,,,,,,57.11,0.7999,,1.56,0.0409,0.0818
2021-11-03 02:20:02+00:00,1635906002,18.87,,,,,,,,,,55.53,0.777766666666667,,1.5632,0.0088,0.0176
2021-11-03 02:40:02+00:00,1635907202,19.07,,,,,,,,,,51.8066666666667,0.725633333333333,,1.5648,0.0337,0.0674
2021-11-03 03:00:01+00:00,1635908401,19.16,,,,,,,,,,52.9666666666667,0.741866666666667,,1.5648,0.0528,0.1056
2021-11-03 03:20:01+00:00,1635909601,19.16,,,,,,,,,,53.4133333333333,0.748133333333333,,1.5664,0.0102,0.0204
2021-11-03 03:40:01+00:00,1635910801,19.15,,,,,,,,,,59.2066666666667,0.829333333333333,,1.5695,0.0397,0.0794
2021-11-03 04:00:01+00:00,1635912001,19.11,,,,,,,,,,60.4666666666667,0.846933333333333,,1.568,0.0353,0.0706
2021-11-03 04:20:02+00:00,1635913202,19.11,,,,,,,,,,51.9266666666667,0.7273,,1.5695,0.0309,0.0618
2021-11-03 04:40:01+00:00,1635914401,19.06,,,,,,,,,,47.0133333333333,0.6585,,1.568,0.0426,0.0852
2021-11-03 05:00:02+00:00,1635915602,18.97,,,,,,,,,,48.6266666666667,0.681066666666667,,1.5728,0.0442,0.0884
2021-11-03 05:20:01+00:00,1635916801,18.89,,,,,,,,,,54.8366666666667,0.768066666666666,,1.5744,0.0472,0.0944
2021-11-03 06:00:01+00:00,1635919201,18.66,,,,,,,,,,50.1566666666667,0.702566666666667,,1.5776,-0.0044,-0.0088
2021-11-03 06:20:01+00:00,1635920401,18.54,,,,,,,,,,45.1466666666667,0.6324,,1.5792,0.037,0.074
2021-11-03 06:40:01+00:00,1635921601,18.39,,,,,,,,,,47.48,0.6651,,1.5776,0.0503,0.1006
2021-11-03 07:00:02+00:00,1635922802,18.24,,,,,,,,,,50.9833333333333,0.7141,,1.5792,0.0074,0.0148
2021-11-03 07:20:02+00:00,1635924002,18.02,,,,,,,,,,48.93,0.685333333333333,,1.5792,0.0163,0.0326
2021-11-03 07:40:02+00:00,1635925202,17.77,,,,,,,,,,43.23,0.605533333333333,,1.5776,0.0029,0.0058
2021-11-03 08:00:01+00:00,1635926401,17.55,,,,,,,,,,42.4466666666667,0.594533333333333,,1.5776,0.034,0.068
2021-11-03 08:20:01+00:00,1635927601,17.34,,,,,,,,,,40.9533333333333,0.573633333333333,,1.5776,-0.0059,-0.0118
2021-11-03 08:40:02+00:00,1635928802,17.15,,,,,,,,,,41.1866666666667,0.576933333333333,,1.5776,0.0059,0.0118
2021-11-03 09:00:01+00:00,1635930001,17,,,,,,,,,,38.49,0.539133333333333,,1.5776,0.031,0.062
2021-11-03 09:20:02+00:00,1635931202,16.87,,,,,,,,,,35.04,0.490766666666667,,1.5776,0.0385,0.077
2021-11-03 09:40:01+00:00,1635932401,16.77,,,,,,,,,,37.81,0.5296,,1.5776,0.0296,0.0592
2021-11-03 10:00:02+00:00,1635933602,16.71,,,,,,,,,,32.7166666666667,0.458266666666667,,1.5776,0.0074,0.0148
2021-11-03 10:20:02+00:00,1635934802,16.64,,,,,,,,,,33.72,0.4723,,1.5792,-0.0177,-0.0354
2021-11-03 10:40:02+00:00,1635936002,16.61,,,,,,,,,,34.4233333333333,0.482133333333333,,1.5792,0.0074,0.0148
2021-11-03 11:00:01+00:00,1635937201,16.55,,,,,,,,,,33.6366666666667,0.4711,,1.5792,0.0222,0.0444
2021-11-03 11:20:01+00:00,1635938401,16.51,,,,,,,,,,34.3466666666667,0.4811,,1.5792,0.0207,0.0414
2021-11-03 11:40:01+00:00,1635939601,16.47,,,,,,,,,,34.77,0.487033333333333,,1.5792,0.0192,0.0384
2021-11-03 12:00:02+00:00,1635940802,16.42,,,,,,,,,,27.28,0.382133333333333,,1.5808,0.0385,0.077
2021-11-03 12:20:02+00:00,1635942002,16.36,,,,,,,,,,20.2933333333333,0.284233333333333,,1.5776,0,0
2021-11-03 12:40:01+00:00,1635943201,16.35,,,,,,,,,,27.03,0.378633333333333,,1.5776,0.034,0.068
2021-11-03 13:00:01+00:00,1635944401,16.34,,,,,,,,,,26.5833333333333,0.372333333333333,,1.5792,0.0163,0.0326
2021-11-03 13:20:02+00:00,1635945602,16.31,,,,,,,,,,21.98,0.307866666666667,,1.5792,0.0429,0.0858
2021-11-03 13:40:02+00:00,1635946802,16.3,,,,,,,,,,23.5033333333333,0.329233333333333,,1.5808,0.0341,0.0682
2021-11-03 14:00:02+00:00,1635948002,16.27,,,,,,,,,,20.8566666666667,0.292133333333333,,1.5808,0.0504,0.1008
2021-11-03 14:20:01+00:00,1635949201,16.23,,,,,,,,,,16.8233333333333,0.235633333333333,,1.5839,0.0431,0.0862
2021-11-03 14:40:01+00:00,1635950401,16.2,,,,,,,,,,22.0566666666667,0.308966666666667,,1.5872,0.0342,0.0684
2021-11-03 15:00:02+00:00,1635951602,16.18,,,,,,,,,,20.5633333333333,0.288066666666667,,1.5888,0.0492,0.0984
2021-11-03 15:20:01+00:00,1635952801,16.14,,,,,,,,,,28.85,0.404166666666667,,1.5936,0.1032,0.2064
2021-11-03 15:40:01+00:00,1635954001,16.11,,,,,,,,,,24.9566666666667,0.3496,,1.5936,0.0733,0.1466
2021-11-03 16:00:01+00:00,1635955201,16.1,,,,,,,,,,21.9833333333333,0.3079,,1.5968,0.0884,0.1768
2021-11-03 16:40:02+00:00,1635957602,16.13,,,,,,,,,,31.2033333333333,0.437066666666667,,1.6064,0.0709,0.1418
2021-11-03 17:00:01+00:00,1635958801,16.11,,,,,,,,,,31.02,0.434533333333333,,1.6096,0.1134,0.2268
2021-11-03 17:20:02+00:00,1635960002,16.09,,,,,,,,,,29.9366666666667,0.419366666666667,,1.6096,0.1149,0.2298
2021-11-03 17:40:01+00:00,1635961201,16.04,,,,,,,,,,28.73,0.402433333333333,,1.6128,0.0969,0.1938
2021-11-03 18:00:02+00:00,1635962402,15.94,,,,,,,,,,29.0133333333333,0.406333333333333,,1.6144,0.0712,0.1424
2021-11-03 18:20:01+00:00,1635963601,15.89,,,,,,,,,,26.71,0.374133333333333,,1.6128,0.103,0.206
2021-11-03 18:40:01+00:00,1635964801,15.96,,,,,,,,,,29.0766666666667,0.407233333333333,,1.6128,0.1015,0.203
2021-11-03 19:00:02+00:00,1635966002,16.07,,,,,,,,,,30.6766666666667,0.4297,,1.6112,0.0772,0.1544
2021-11-03 19:20:01+00:00,1635967201,16.18,,,,,,,,,,32.9933333333333,0.462166666666667,,1.6096,0.0559,0.1118
2021-11-03 19:40:01+00:00,1635968401,16.25,,,,,,,,,,28.8133333333333,0.4036,,1.6032,0.0948,0.1896
2021-11-03 20:00:01+00:00,1635969601,16.45,,,,,,,,,,29.64,0.415166666666667,,1.5983,0.072,0.144
2021-11-03 20:20:02+00:00,1635970802,16.58,,,,,,,,,,24.7533333333333,0.346733333333333,,1.5968,0.0389,0.0778
2021-11-03 20:40:01+00:00,1635972001,16.56,,,,,,,,,,28.87,0.404333333333333,,1.5952,0.0089,0.0178
2021-11-03 21:00:02+00:00,1635973202,16.64,,,,,,,,,,29.5466666666667,0.413833333333333,,1.5952,-0.0239,-0.0478
2021-11-03 21:20:01+00:00,1635974401,16.74,,,,,,,,,,34.85,0.488133333333333,,1.592,0.0104,0.0208
2021-11-03 21:40:02+00:00,1635975602,17.16,,,,,,,,,,31.8833333333333,0.446566666666667,,1.5728,-0.2937,-0.5874
2021-11-03 22:00:01+00:00,1635976801,19.03,,,,,,,,,,28.4633333333333,0.3987,,1.5392,-0.5282,-1.0564
2021-11-03 22:20:02+00:00,1635978002,19.68,,,,,,,,,,26.7066666666667,0.374066666666667,,1.5056,-0.6515,-1.303
2021-11-03 22:40:01+00:00,1635979201,20.02,,,,,,,,,,27.4266666666667,0.384133333333333,,1.4752,-0.6433,-1.2866
2021-11-03 23:00:02+00:00,1635980402,20.28,,,,,,,,,,31.2666666666667,0.437933333333333,,-1,0,0
2021-11-03 23:20:01+00:00,1635981601,20.49,,,,,,,,,,26.3433333333333,0.369,,1.4416,-0.6914,-1.3828
2021-11-03 23:40:01+00:00,1635982801,20.56,,,,,,,,,,31.6166666666667,0.4429,,1.432,-0.6705,-1.341
2021-11-04 00:00:02+00:00,1635984002,20.51,,,,,,,,,,34.8566666666667,0.488233333333333,,1.424,-0.6653,-1.3306
2021-11-04 00:20:02+00:00,1635985202,20.46,,,,,,,,,,33.7633333333333,0.472933333333333,,1.4192,-0.6032,-1.2064
2021-11-04 00:40:02+00:00,1635986402,20.45,,,,,,,,,,43.95,0.6156,,1.4464,-0.3665,-0.733
2021-11-04 01:00:02+00:00,1635987602,20.42,,,,,,,,,,53.6533333333333,0.751533333333333,,1.4768,-0.0594,-0.1188
2021-11-04 01:20:02+00:00,1635988802,20.39,,,,,,,,,,49.6866666666667,0.695933333333333,,1.4912,-0.0614,-0.1228
2021-11-04 02:00:01+00:00,1635991201,20.32,,,,,,,,,,54.7466666666667,0.7668,,1.5088,0.007,0.014
2021-11-04 02:20:01+00:00,1635992401,20.3,,,,,,,,,,50.0833333333333,0.701466666666667,,1.5104,0.0056,0.0112
2021-11-04 02:40:01+00:00,1635993601,20.19,,,,,,,,,,57.7433333333333,0.808833333333333,,1.5136,0.0255,0.051
2021-11-04 03:00:01+00:00,1635994801,20.07,,,,,,,,,,63.7566666666667,0.893,,1.5104,-0.0127,-0.0254
2021-11-04 03:20:02+00:00,1635996002,20.05,,,,,,,,,,42.8966666666667,0.600866666666667,,1.512,0.0155,0.031
2021-11-04 03:40:02+00:00,1635997202,19.98,,,,,,,,,,47.3533333333333,0.6633,,1.5088,0.0268,0.0536
2021-11-04 04:00:02+00:00,1635998402,19.94,,,,,,,,,,53.8266666666667,0.753933333333333,,1.5136,0.0453,0.0906
2021-11-04 04:20:01+00:00,1635999601,19.88,,,,,,,,,,46.34,0.649033333333333,,1.5152,0.017,0.034
2021-11-04 04:40:01+00:00,1636000801,19.82,,,,,,,,,,40.6033333333333,0.5687,,1.5184,0.0369,0.0738
2021-11-04 05:00:02+00:00,1636002002,19.77,,,,,,,,,,35.42,0.496133333333333,,1.5232,0.0513,0.1026
2021-11-04 05:20:01+00:00,1636003201,19.72,,,,,,,,,,34.5166666666667,0.483466666666667,,1.5248,0.0743,0.1486
2021-11-04 05:40:02+00:00,1636004402,19.68,,,,,,,,,,42.7,0.598133333333333,,1.5264,0.06,0.12
2021-11-04 06:00:02+00:00,1636005602,19.63,,,,,,,,,,41.19,0.5769,,1.528,0.0787,0.1574
2021-11-04 06:20:01+00:00,1636006801,19.54,,,,,,,,,,41.9466666666667,0.587566666666667,,1.5264,0.0214,0.0428
2021-11-04 06:40:01+00:00,1636008001,19.4,,,,,,,,,,36.5133333333333,0.511466666666667,,1.528,0.0687,0.1374
2021-11-04 07:00:01+00:00,1636009201,19.21,,,,,,,,,,32.2433333333333,0.451666666666667,,1.5264,0.0271,0.0542
2021-11-04 07:20:01+00:00,1636010401,18.98,,,,,,,,,,23.5366666666667,0.3297,,1.5232,0.0271,0.0542